Regional Weather Roundup
Issued by NWS

Home | Current Version | Previous Version | Text Only | Print | Product List | Glossary Off
Versions: 1 2 3 4 5 6 7 8 9 10 11 12 13 14 15 16 17 18 19 20 21 22 23 24 25 26 27 28 29 30 31 32 33 34 35 36 37 38 39 40 41 42 43 44 45 46 47 48 49 50

000
ASUS43 KIND 202109
RWRIN

WEATHER ROUNDUP FOR INDIANA
NATIONAL WEATHER SERVICE INDIANAPOLIS IN
400 PM EST MON FEB 20 2017

NOTE: "FAIR" INDICATES FEW OR NO CLOUDS BELOW 12,000 FEET WITH NO
SIGNIFICANT WEATHER AND/OR OBSTRUCTIONS TO VISIBILITY.

* - STATION DOES NOT REPORT WEATHER SUCH AS PRECIPITATION OR FOG.

+ - STATION NOT QUALITY CONTROLLED BY THE NATIONAL WEATHER SERVICE.
    USE DATA WITH CAUTION...ESPECIALLY DEWPOINT AND RELATIVE
    HUMIDITY OBSERVATIONS.

INZ001>003-010>013-019-020-202200-
NORTHWEST INDIANA

CITY           SKY/WX    TMP DP  RH WIND       PRES   REMARKS
GARY /AIRPORT/ PTSUNNY   70  41  35 S12G25    30.02F
KNOX *+        CLOUDY    64  16  15 SE16      30.06F
LA PORTE +     CLOUDY    64  43  45 SE13      30.07F
MICHIGAN CITY+ MOSUNNY   66  43  42 SE10G17   30.06F
MONTICELLO +   MOSUNNY   65  42  42 SE7       30.05F
RENSSELAER +   MOSUNNY   66  43  42 SE13G18   30.05F
VALPARAISO     MOSUNNY   67  44  43 SE17G23   30.05F

$$

LMZ046-743>745-202200-
SOUTHERN LAKE MICHIGAN

STATION/POSITION TIME  TEMP    WIND        PRES    WAVE
                       AIR SEA DIR/SP/G            HT
                 (UTC) (F)     (DEG/KT/KT) (MB)    (FT)
BURNS HARBOR     2100   66     140/ 11/ 23 1017.3
MICHIGAN CITY    2040   64     130/ 12/ 17   N/A

$$

INZ004-005-014>016-021>024-202200-
NORTH CENTRAL INDIANA

CITY           SKY/WX    TMP DP  RH WIND       PRES   REMARKS
ELKHART        SUNNY     64  43  45 SE13      30.09
GOSHEN         CLOUDY    64  41  42 S15       30.10F
LOGANSPORT +   MOSUNNY   64  43  45 SE16      30.08F
PERU/GRISSOM   MOSUNNY   65  44  46 SE13      30.07F
ROCHESTER +    MOSUNNY   64  41  42 SE10      30.09F
SOUTH BEND     CLOUDY    63  44  50 SE17      30.09F
WARSAW +       MOSUNNY   63  45  51 SE7G16    30.10F

$$

INZ006>009-017-018-025>027-202200-
NORTHEAST INDIANA

CITY           SKY/WX    TMP DP  RH WIND       PRES   REMARKS
ANGOLA *+      SUNNY     59  39  47 SE14      30.15R
AUBURN +       MOSUNNY   63  37  39 E9        30.15R
FORT WAYNE     PTSUNNY   63  42  46 SE13      30.14S
HUNTINGTON +   CLOUDY    63  41  44 SE9       30.12F
KENDALLVILLE + MOSUNNY   61  40  46 SE10      30.13S

$$

INZ028-029-035-036-043>045-051>053-202200-
WEST CENTRAL INDIANA

CITY           SKY/WX    TMP DP  RH WIND       PRES   REMARKS
GREENCASTLE +  CLOUDY    66  45  45 S10       30.08S
LAFAYETTE      CLOUDY    67  44  43 SE14      30.05F
TERRE HAUTE    MOSUNNY   68  46  45 SE14      30.04F

$$

INZ030>032-037>040-046>048-054>057-064-065-202200-
CENTRAL INDIANA

CITY           SKY/WX    TMP DP  RH WIND       PRES   REMARKS
COLUMBUS       SUNNY     66  48  52 S8        30.09F
FRANKFORT +    MOSUNNY   70  45  40 SE15      30.08F
GREENWOOD *+   MOSUNNY   65  48  55 S8        30.10S
INDIANAPOLIS   PTSUNNY   65  46  50 SE12      30.07F
-EAGLE CREEK   SUNNY     66  45  46 SE9       30.07F
KOKOMO +       MOSUNNY   66  44  45 SE15      30.10F
MARION +       MOSUNNY   65  40  40 SE12      30.11F
MT COMFORT *+  SUNNY     66  46  48 SE12      30.09F
SHELBYVILLE    SUNNY     66  47  50 SE10      30.09F
ZIONSVILLE +   SUNNY     65  44  48 SE9       30.09F

$$

INZ033-034-041-042-049-050-058-059-202200-
EAST CENTRAL INDIANA

CITY           SKY/WX    TMP DP  RH WIND       PRES   REMARKS
MUNCIE         MOSUNNY   66  40  38 SE10      30.10F

$$

INZ060-061-067>069-081>083-085>088-202200-
SOUTHWEST INDIANA

CITY           SKY/WX    TMP DP  RH WIND       PRES   REMARKS
EVANSVILLE     SUNNY     74  51  44 S9        30.05F
HUNTINGBURG *+ CLOUDY    72  50  45 S8        30.06F
WASHINGTON +   SUNNY     71  44  37 S12       30.04F

$$

INZ062-063-066-070>080-084-089>092-202200-
SOUTH CENTRAL AND SOUTHEAST INDIANA

CITY           SKY/WX    TMP DP  RH WIND       PRES   REMARKS
BEDFORD +      CLOUDY   N/A N/A N/A SE10      30.08S
BLOOMINGTON    MOSUNNY   68  46  45 SE9       30.07F
MADISON *+     SUNNY     68  45  42 CALM      30.11F
NORTH VERNON + CLOUDY    68  45  42 S7        30.11F
SEYMOUR +      MOSUNNY   70  48  46 SE8       30.09F

$$





USA.gov is the U.S. government's official web portal to all federal, state and local government web resources and services.